TGM annuale;;;;;;;;;;;;;;;;TGM annuale;;;;;;;;;;;;;;;;TGM annuale;;;;;;;;;;;;;;
Tratta nr.178 SRT429, Km 0.000, Empoli (FI) (flussi ascendente/discendente);;;;;;;;;;;;;;;;Tratta nr.178 SRT429, Km 0.000, Empoli (FI) (flusso ascendente);;;;;;;;;;;;;;;;Tratta nr.178 SRT429, Km 0.000, Empoli (FI) (flusso discendente);;;;;;;;;;;;;;
Anno;01 Motocicli;02 Auto e monovolume;03 Auto e monovolume con rimorchio;04 Furgoncini e camioncini;05 Camion medi;06 Camion grandi;07 Autotreni;08 Autoarticolati;09 Autobus;10 Veicoli non classificati;Totale;Feriali;Festivi;Prefestivi;;Anno;01 Motocicli;02 Auto e monovolume;03 Auto e monovolume con rimorchio;04 Furgoncini e camioncini;05 Camion medi;06 Camion grandi;07 Autotreni;08 Autoarticolati;09 Autobus;10 Veicoli non classificati;Totale;Feriali;Festivi;Prefestivi;;Anno;01 Motocicli;02 Auto e monovolume;03 Auto e monovolume con rimorchio;04 Furgoncini e camioncini;05 Camion medi;06 Camion grandi;07 Autotreni;08 Autoarticolati;09 Autobus;10 Veicoli non classificati;Totale;Feriali;Festivi;Prefestivi
2019;91;8154;7;715;185;266;148;315;16;0;9896;10308;8547;9516;;2019;47;4013;3;358;87;134;59;147;6;0;4854;5076;4142;4632;;2019;43;4142;4;357;98;133;89;167;9;0;5042;5232;4405;4883
;;;;;;;;;;;;;;;;;;;;;;;;;;;;;;;;;;;;;;;;;;;;;;
Tabella flussi 2019;;;;;;;;;;;;;;;;Tabella flussi 2019;;;;;;;;;;;;;;;;Tabella flussi 2019;;;;;;;;;;;;;;
Tratta nr.178 SRT429, Km 0.000, Empoli (FI) (flussi ascendente/discendente);;;;;;;;;;;;;;;;Tratta nr.178 SRT429, Km 0.000, Empoli (FI) (flusso ascendente);;;;;;;;;;;;;;;;Tratta nr.178 SRT429, Km 0.000, Empoli (FI) (flusso discendente);;;;;;;;;;;;;;
;Traffico Totale;;;;;;;;;;;Traffico Med.Orario 06:00 - 20:00;Traffico Ora di punta;;;;Traffico Totale;;;;;;;;;;;Traffico Med.Orario 06:00 - 20:00;Traffico Ora di punta;;;;Traffico Totale;;;;;;;;;;;Traffico Med.Orario 06:00 - 20:00;Traffico Ora di punta;
Giorno;01 Motocicli;02 Auto e monovolume;03 Auto e monovolume con rimorchio;04 Furgoncini e camioncini;05 Camion medi;06 Camion grandi;07 Autotreni;08 Autoarticolati;09 Autobus;10 Veicoli non classificati;Totale;Totale;Ora di punta;Flusso totale ora di punta;;Giorno;01 Motocicli;02 Auto e monovolume;03 Auto e monovolume con rimorchio;04 Furgoncini e camioncini;05 Camion medi;06 Camion grandi;07 Autotreni;08 Autoarticolati;09 Autobus;10 Veicoli non classificati;Totale;Totale;Ora di punta;Flusso totale ora di punta;;Giorno;01 Motocicli;02 Auto e monovolume;03 Auto e monovolume con rimorchio;04 Furgoncini e camioncini;05 Camion medi;06 Camion grandi;07 Autotreni;08 Autoarticolati;09 Autobus;10 Veicoli non classificati;Totale;Totale;Ora di punta;Flusso totale ora di punta
01/01/2019;24;5538;3;186;10;3;44;4;6;0;5818;288;18;548;;01/01/2019;16;2511;0;72;4;1;12;2;1;0;2619;123;18;250;;01/01/2019;8;3027;3;114;6;2;32;2;5;0;3199;164;16;332
02/01/2019;16;6289;2;537;157;237;107;249;3;0;7597;468;18;643;;02/01/2019;9;2917;2;246;72;118;41;110;0;0;3515;212;19;366;;02/01/2019;7;3372;0;291;85;119;66;139;3;0;4082;255;16;352
03/01/2019;34;5995;2;600;152;280;150;291;5;0;7509;464;18;613;;03/01/2019;25;2850;0;294;67;145;59;130;1;0;3571;213;18;354;;03/01/2019;9;3145;2;306;85;135;91;161;4;0;3938;251;17;289
04/01/2019;13;6160;3;563;183;285;136;293;4;0;7640;460;18;627;;04/01/2019;10;2911;3;257;95;136;51;143;1;0;3607;211;18;332;;04/01/2019;3;3249;0;306;88;149;85;150;3;0;4033;249;15;298
05/01/2019;22;6574;6;411;35;75;67;52;3;0;7245;415;17;657;;05/01/2019;13;3073;4;195;18;37;21;25;3;0;3389;188;18;311;;05/01/2019;9;3501;2;216;17;38;46;27;0;0;3856;228;17;386
06/01/2019;48;6016;5;153;13;5;38;14;2;0;6294;347;17;602;;06/01/2019;14;2849;2;68;10;3;8;8;0;0;2962;153;18;290;;06/01/2019;34;3167;3;85;3;2;30;6;2;0;3332;194;17;358
07/01/2019;19;5959;5;609;209;297;138;397;11;0;7644;472;18;596;;07/01/2019;15;2972;3;294;101;138;61;178;1;0;3763;225;18;360;;07/01/2019;4;2987;2;315;108;159;77;219;10;0;3881;246;7;359
08/01/2019;17;6001;9;613;247;356;192;367;6;0;7808;480;18;555;;08/01/2019;12;2961;8;314;117;184;58;181;3;0;3838;230;18;348;;08/01/2019;5;3040;1;299;130;172;134;186;3;0;3970;250;7;357
09/01/2019;14;6071;3;703;231;320;154;384;3;0;7883;484;8;577;;09/01/2019;10;2935;2;361;102;154;58;160;0;0;3782;226;18;331;;09/01/2019;4;3136;1;342;129;166;96;224;3;0;4101;257;8;368
10/01/2019;25;6273;2;677;220;364;190;401;6;0;8158;507;18;663;;10/01/2019;16;3074;1;337;97;169;74;175;3;0;3946;240;18;406;;10/01/2019;9;3199;1;340;123;195;116;226;3;0;4212;267;7;360
11/01/2019;27;6373;5;668;226;344;175;359;5;0;8182;494;18;624;;11/01/2019;20;3109;3;332;102;169;60;166;1;0;3962;236;18;369;;11/01/2019;7;3264;2;336;124;175;115;193;4;0;4220;258;8;354
12/01/2019;25;6687;10;448;53;65;91;58;6;0;7443;424;17;609;;12/01/2019;15;3274;5;226;25;30;27;29;2;0;3633;199;19;308;;12/01/2019;10;3413;5;222;28;35;64;29;4;0;3810;226;16;338
13/01/2019;23;6225;5;210;13;5;37;10;8;0;6536;364;17;602;;13/01/2019;15;3002;1;102;7;3;8;7;3;0;3148;164;18;337;;13/01/2019;8;3223;4;108;6;2;29;3;5;0;3388;199;16;355
14/01/2019;21;6149;5;621;210;341;140;407;6;0;7900;488;7;587;;14/01/2019;17;3021;4;306;98;163;56;184;2;0;3851;231;18;350;;14/01/2019;4;3128;1;315;112;178;84;223;4;0;4049;257;7;374
15/01/2019;22;6237;5;643;228;409;207;432;8;0;8191;505;17;637;;15/01/2019;14;3122;3;321;112;194;75;209;3;0;4053;245;17;370;;15/01/2019;8;3115;2;322;116;215;132;223;5;0;4138;260;7;347
16/01/2019;29;6224;2;724;247;348;185;449;8;0;8216;508;18;627;;16/01/2019;17;3063;1;365;116;166;70;202;2;0;4002;242;18;380;;16/01/2019;12;3161;1;359;131;182;115;247;6;0;4214;267;8;384
17/01/2019;26;6316;3;651;249;392;180;448;17;0;8282;508;18;627;;17/01/2019;21;3078;1;310;120;198;71;208;8;0;4015;241;18;374;;17/01/2019;5;3238;2;341;129;194;109;240;9;0;4267;266;8;367
18/01/2019;22;6484;8;697;247;357;152;406;15;0;8388;502;17;584;;18/01/2019;15;3157;3;359;106;178;62;188;3;0;4071;238;19;340;;18/01/2019;7;3327;5;338;141;179;90;218;12;0;4317;263;7;339
19/01/2019;33;7256;6;422;58;66;72;45;6;0;7964;457;17;632;;19/01/2019;19;3466;4;209;31;32;26;21;2;0;3810;212;13;338;;19/01/2019;14;3790;2;213;27;34;46;24;4;0;4154;244;16;406
20/01/2019;22;6521;3;198;12;11;45;12;9;0;6833;384;17;677;;20/01/2019;13;3193;2;93;7;6;18;7;6;0;3345;174;18;326;;20/01/2019;9;3328;1;105;5;5;27;5;3;0;3488;210;17;408
21/01/2019;17;6007;8;655;227;376;151;467;11;0;7919;494;18;595;;21/01/2019;13;2992;2;318;116;191;64;209;2;0;3907;239;18;372;;21/01/2019;4;3015;6;337;111;185;87;258;9;0;4012;255;8;337
22/01/2019;11;5930;3;625;223;455;144;455;12;0;7858;492;18;575;;22/01/2019;11;2945;1;313;107;231;67;213;5;0;3893;238;18;352;;22/01/2019;0;2985;2;312;116;224;77;242;7;0;3965;254;7;347
23/01/2019;14;5758;2;658;196;422;179;432;11;0;7672;477;8;548;;23/01/2019;14;2769;1;315;101;201;65;191;2;0;3659;222;18;318;;23/01/2019;0;2989;1;343;95;221;114;241;9;0;4013;255;8;333
24/01/2019;19;6210;3;648;231;461;184;442;5;0;8203;505;18;619;;24/01/2019;13;3074;2;321;107;221;75;203;1;0;4017;241;18;372;;24/01/2019;6;3136;1;327;124;240;109;239;4;0;4186;263;8;356
25/01/2019;22;6515;6;704;220;450;174;410;11;0;8512;515;18;630;;25/01/2019;17;3197;2;357;102;222;70;190;4;0;4161;247;18;373;;25/01/2019;5;3318;4;347;118;228;104;220;7;0;4351;268;8;351
26/01/2019;26;6707;5;419;53;64;59;72;12;0;7417;426;18;592;;26/01/2019;13;3297;2;208;24;36;18;37;5;0;3640;201;19;334;;26/01/2019;13;3410;3;211;29;28;41;35;7;0;3777;225;16;327
27/01/2019;18;6170;6;194;20;5;30;9;12;0;6464;359;18;618;;27/01/2019;13;2962;4;99;12;3;13;7;4;0;3117;162;18;332;;27/01/2019;5;3208;2;95;8;2;17;2;8;0;3347;196;17;347
28/01/2019;30;5908;4;642;199;470;164;457;15;0;7889;491;7;595;;28/01/2019;26;2907;2;307;96;235;74;225;6;0;3878;234;18;353;;28/01/2019;4;3001;2;335;103;235;90;232;9;0;4011;257;8;369
29/01/2019;31;6128;5;660;263;474;169;472;7;0;8209;507;18;605;;29/01/2019;26;2972;3;325;135;230;78;220;2;0;3991;238;18;334;;29/01/2019;5;3156;2;335;128;244;91;252;5;0;4218;269;7;366
30/01/2019;18;6074;2;732;216;468;184;452;11;0;8157;514;8;637;;30/01/2019;18;2943;0;356;103;232;80;203;3;0;3938;243;18;340;;30/01/2019;0;3131;2;376;113;236;104;249;8;0;4219;272;8;385
31/01/2019;26;5991;3;632;189;354;202;390;11;0;7798;480;8;618;;31/01/2019;17;2969;1;311;95;186;76;176;4;0;3835;230;18;367;;31/01/2019;9;3022;2;321;94;168;126;214;7;0;3963;250;8;397
01/02/2019;14;6156;1;745;235;326;183;371;11;0;8042;485;18;601;;01/02/2019;12;3012;1;365;114;154;85;165;2;0;3910;232;18;382;;01/02/2019;2;3144;0;380;121;172;98;206;9;0;4132;253;8;371
02/02/2019;14;6395;3;384;57;64;51;56;8;0;7032;396;17;530;;02/02/2019;10;3093;2;174;26;31;16;25;4;0;3381;182;19;302;;02/02/2019;4;3302;1;210;31;33;35;31;4;0;3651;214;16;275
03/02/2019;13;6656;0;183;15;8;40;7;8;0;6930;392;17;635;;03/02/2019;8;3229;0;81;8;3;12;6;3;0;3350;179;12;286;;03/02/2019;5;3427;0;102;7;5;28;1;5;0;3580;212;17;375
04/02/2019;41;5973;1;640;266;511;160;437;8;0;8037;496;18;604;;04/02/2019;31;2931;0;319;135;256;66;193;6;0;3937;237;18;363;;04/02/2019;10;3042;1;321;131;255;94;244;2;0;4100;259;8;361
05/02/2019;35;5923;3;646;220;430;151;426;7;0;7841;481;18;616;;05/02/2019;22;2961;1;324;102;211;59;202;3;0;3885;234;18;361;;05/02/2019;13;2962;2;322;118;219;92;224;4;0;3956;247;8;327
06/02/2019;35;6175;5;717;223;394;146;413;16;0;8124;496;18;642;;06/02/2019;22;3042;2;357;101;193;67;186;4;0;3974;237;18;373;;06/02/2019;13;3133;3;360;122;201;79;227;12;0;4150;259;8;383
07/02/2019;32;6355;3;658;261;389;145;390;8;0;8241;508;18;671;;07/02/2019;19;3145;1;326;123;193;65;181;1;0;4054;246;18;431;;07/02/2019;13;3210;2;332;138;196;80;209;7;0;4187;262;7;360
08/02/2019;28;6654;2;748;211;386;177;433;12;0;8651;522;18;681;;08/02/2019;18;3310;1;372;98;193;82;200;6;0;4280;257;18;423;;08/02/2019;10;3344;1;376;113;193;95;233;6;0;4371;265;8;364
09/02/2019;36;6857;11;395;42;65;55;62;15;0;7538;431;16;594;;09/02/2019;23;3363;6;194;23;33;16;29;8;0;3695;205;19;306;;09/02/2019;13;3494;5;201;19;32;39;33;7;0;3843;226;16;338
10/02/2019;23;6452;9;195;16;9;25;13;8;0;6750;375;17;643;;10/02/2019;15;3127;4;91;8;6;7;6;3;0;3267;172;18;326;;10/02/2019;8;3325;5;104;8;3;18;7;5;0;3483;204;17;362
11/02/2019;34;6116;1;598;250;369;158;443;12;0;7981;485;8;603;;11/02/2019;23;3027;0;298;115;196;71;192;6;0;3928;233;18;355;;11/02/2019;11;3089;1;300;135;173;87;251;6;0;4053;252;8;369
12/02/2019;32;6125;3;680;260;370;151;501;8;0;8130;499;18;590;;12/02/2019;24;3013;1;341;125;182;58;233;3;0;3980;237;18;357;;12/02/2019;8;3112;2;339;135;188;93;268;5;0;4150;262;8;355
13/02/2019;23;6245;1;710;277;409;173;420;12;0;8270;503;18;655;;13/02/2019;17;3092;1;349;135;208;70;200;5;0;4077;244;18;398;;13/02/2019;6;3153;0;361;142;201;103;220;7;0;4193;259;8;347
14/02/2019;44;6671;3;652;228;445;170;403;12;0;8628;520;19;679;;14/02/2019;27;3375;1;343;119;211;66;190;2;0;4334;255;19;438;;14/02/2019;17;3296;2;309;109;234;104;213;10;0;4294;265;7;349
15/02/2019;36;6403;4;669;212;455;137;394;11;0;8321;495;18;614;;15/02/2019;26;3213;2;331;97;240;52;178;4;0;4143;242;18;355;;15/02/2019;10;3190;2;338;115;215;85;216;7;0;4178;252;7;339
16/02/2019;72;6625;6;431;57;75;59;63;7;0;7395;423;17;553;;16/02/2019;37;3202;1;211;27;34;32;34;3;0;3581;198;19;302;;16/02/2019;35;3423;5;220;30;41;27;29;4;0;3814;225;15;318
17/02/2019;71;7042;1;227;15;14;51;8;14;0;7443;426;17;684;;17/02/2019;32;3320;0;105;9;9;16;6;5;0;3502;186;18;348;;17/02/2019;39;3722;1;122;6;5;35;2;9;0;3941;240;17;378
18/02/2019;25;5961;3;649;237;478;130;416;7;0;7906;489;7;588;;18/02/2019;18;2937;0;334;112;233;54;189;5;0;3882;233;18;356;;18/02/2019;7;3024;3;315;125;245;76;227;2;0;4024;256;7;357
19/02/2019;36;6068;1;698;263;511;192;478;7;0;8254;514;18;609;;19/02/2019;25;2989;0;349;120;258;78;219;2;0;4040;245;18;374;;19/02/2019;11;3079;1;349;143;253;114;259;5;0;4214;269;8;348
20/02/2019;31;6142;8;700;261;457;182;441;10;0;8232;507;17;634;;20/02/2019;20;3005;4;363;141;239;65;198;3;0;4038;242;18;375;;20/02/2019;11;3137;4;337;120;218;117;243;7;0;4194;265;8;346
21/02/2019;37;6287;10;629;234;547;160;472;14;0;8390;518;17;640;;21/02/2019;27;3059;6;294;117;265;69;224;3;0;4064;246;18;355;;21/02/2019;10;3228;4;335;117;282;91;248;11;0;4326;272;8;377
22/02/2019;43;6561;5;658;291;451;162;422;10;0;8603;516;18;635;;22/02/2019;24;3229;4;321;133;221;66;190;4;0;4192;247;18;383;;22/02/2019;19;3332;1;337;158;230;96;232;6;0;4411;269;8;375
23/02/2019;50;6976;10;412;47;60;57;68;12;0;7692;432;17;572;;23/02/2019;26;3390;7;200;27;31;18;32;6;0;3737;204;19;315;;23/02/2019;24;3586;3;212;20;29;39;36;6;0;3955;228;17;314
24/02/2019;34;6703;9;184;22;4;33;13;13;0;7015;393;17;639;;24/02/2019;20;3252;2;88;12;1;14;8;7;0;3404;180;19;319;;24/02/2019;14;3451;7;96;10;3;19;5;6;0;3611;213;17;379
25/02/2019;36;6156;2;615;206;480;153;473;8;0;8129;504;18;618;;25/02/2019;21;3060;0;305;97;243;65;214;1;0;4006;242;18;380;;25/02/2019;15;3096;2;310;109;237;88;259;7;0;4123;262;7;386
26/02/2019;40;6330;5;721;311;474;167;493;9;0;8550;523;8;623;;26/02/2019;27;3119;4;354;147;237;70;216;4;0;4178;248;18;364;;26/02/2019;13;3211;1;367;164;237;97;277;5;0;4372;275;8;382
27/02/2019;46;6570;1;763;276;427;168;479;5;0;8735;538;17;654;;27/02/2019;27;3272;1;380;126;209;78;212;1;0;4306;258;18;375;;27/02/2019;19;3298;0;383;150;218;90;267;4;0;4429;280;7;378
28/02/2019;39;6694;2;731;246;526;166;488;12;0;8904;538;8;643;;28/02/2019;24;3338;0;370;123;269;60;218;4;0;4406;259;18;368;;28/02/2019;15;3356;2;361;123;257;106;270;8;0;4498;279;8;385
01/03/2019;29;6912;8;765;294;446;165;457;9;0;9085;540;18;684;;01/03/2019;16;3399;2;384;148;219;66;202;5;0;4441;261;18;412;;01/03/2019;13;3513;6;381;146;227;99;255;4;0;4644;279;8;388
02/03/2019;68;7258;9;458;63;64;72;64;8;0;8064;455;18;643;;02/03/2019;32;3571;6;223;22;33;16;36;5;0;3944;215;19;363;;02/03/2019;36;3687;3;235;41;31;56;28;3;0;4120;240;18;325
03/03/2019;89;7194;5;189;14;11;58;13;6;0;7579;420;18;664;;03/03/2019;42;3530;3;89;8;6;17;6;2;0;3703;192;19;332;;03/03/2019;47;3664;2;100;6;5;41;7;4;0;3876;228;16;345
04/03/2019;33;6324;10;700;232;408;144;514;11;0;8376;518;7;631;;04/03/2019;22;3214;4;356;116;196;47;240;5;0;4200;253;18;361;;04/03/2019;11;3110;6;344;116;212;97;274;6;0;4176;264;7;395
05/03/2019;29;6423;5;731;240;510;164;488;11;0;8601;529;18;663;;05/03/2019;21;3141;3;372;110;248;62;235;5;0;4197;251;18;399;;05/03/2019;8;3282;2;359;130;262;102;253;6;0;4404;278;8;381
06/03/2019;45;6532;4;728;239;454;169;442;14;0;8627;528;17;648;;06/03/2019;24;3278;4;374;108;217;72;204;2;0;4283;257;18;376;;06/03/2019;21;3254;0;354;131;237;97;238;12;0;4344;271;8;383
07/03/2019;37;6632;6;745;254;477;175;511;11;0;8848;546;18;672;;07/03/2019;25;3371;0;374;125;239;75;236;2;0;4447;269;17;392;;07/03/2019;12;3261;6;371;129;238;100;275;9;0;4401;278;8;375
08/03/2019;39;7014;8;742;243;444;158;461;15;0;9124;545;17;642;;08/03/2019;27;3425;7;362;115;212;67;211;7;0;4433;258;18;364;;08/03/2019;12;3589;1;380;128;232;91;250;8;0;4691;287;7;391
09/03/2019;67;7505;9;456;75;73;59;73;5;0;8322;476;17;693;;09/03/2019;26;3627;4;227;36;33;27;38;1;0;4019;222;19;361;;09/03/2019;41;3878;5;229;39;40;32;35;4;0;4303;254;17;417
10/03/2019;40;7360;6;272;21;10;67;8;8;0;7792;440;18;693;;10/03/2019;20;3618;2;130;13;4;21;5;4;0;3817;204;18;358;;10/03/2019;20;3742;4;142;8;6;46;3;4;0;3975;236;16;396
11/03/2019;32;6351;3;705;254;387;161;465;9;0;8367;518;17;632;;11/03/2019;19;3160;1;343;122;188;68;214;1;0;4116;249;17;382;;11/03/2019;13;3191;2;362;132;199;93;251;8;0;4251;269;7;388
12/03/2019;38;6542;5;750;284;460;196;453;17;0;8745;541;18;678;;12/03/2019;27;3247;3;359;137;224;81;203;6;0;4287;258;18;389;;12/03/2019;11;3295;2;391;147;236;115;250;11;0;4458;283;7;383
13/03/2019;21;6611;3;757;237;513;183;480;12;0;8817;541;18;699;;13/03/2019;14;3305;1;368;114;256;69;219;6;0;4352;260;18;389;;13/03/2019;7;3306;2;389;123;257;114;261;6;0;4465;281;7;384
14/03/2019;37;6739;5;719;279;542;174;530;13;0;9038;553;18;702;;14/03/2019;22;3335;2;359;135;266;74;243;5;0;4441;266;18;409;;14/03/2019;15;3404;3;360;144;276;100;287;8;0;4597;287;7;392
15/03/2019;55;6925;3;776;302;443;175;465;21;0;9165;553;18;651;;15/03/2019;29;3411;1;369;136;222;86;204;7;0;4465;264;18;393;;15/03/2019;26;3514;2;407;166;221;89;261;14;0;4700;288;7;383
16/03/2019;96;7490;9;483;54;57;49;62;5;0;8305;474;17;668;;16/03/2019;42;3675;5;235;27;26;22;29;3;0;4064;224;19;375;;16/03/2019;54;3815;4;248;27;31;27;33;2;0;4241;250;17;376
17/03/2019;63;7336;9;234;21;7;47;9;11;0;7737;435;18;719;;17/03/2019;29;3632;5;107;9;3;16;6;5;0;3812;205;19;395;;17/03/2019;34;3704;4;127;12;4;31;3;6;0;3925;229;17;384
18/03/2019;28;6478;7;729;268;430;151;451;15;0;8557;529;7;639;;18/03/2019;19;3228;3;386;126;217;63;219;6;0;4267;258;18;361;;18/03/2019;9;3250;4;343;142;213;88;232;9;0;4290;271;7;397
19/03/2019;33;6501;3;745;257;488;179;435;9;0;8650;535;18;650;;19/03/2019;23;3226;2;364;122;232;75;202;5;0;4251;256;19;396;;19/03/2019;10;3275;1;381;135;256;104;233;4;0;4399;279;7;380
20/03/2019;50;6586;3;796;305;475;187;488;13;0;8903;550;18;708;;20/03/2019;33;3255;1;398;151;237;79;216;5;0;4375;263;18;402;;20/03/2019;17;3331;2;398;154;238;108;272;8;0;4528;286;7;395
21/03/2019;45;6740;6;721;287;471;193;496;40;0;8999;553;17;671;;21/03/2019;23;3291;3;365;137;234;76;246;15;0;4390;263;18;379;;21/03/2019;22;3449;3;356;150;237;117;250;25;0;4609;290;8;393
22/03/2019;62;7060;7;839;298;476;202;404;11;0;9359;558;18;702;;22/03/2019;35;3506;6;423;132;239;87;194;7;0;4629;271;18;417;;22/03/2019;27;3554;1;416;166;237;115;210;4;0;4730;287;8;394
23/03/2019;110;7261;9;498;57;86;78;63;8;0;8170;460;19;625;;23/03/2019;55;3497;4;238;24;42;28;30;1;0;3919;212;19;354;;23/03/2019;55;3764;5;260;33;44;50;33;7;0;4251;248;17;347
24/03/2019;174;7640;5;243;22;5;50;13;13;0;8165;456;19;677;;24/03/2019;84;3688;3;123;8;3;16;6;7;0;3938;205;19;319;;24/03/2019;90;3952;2;120;14;2;34;7;6;0;4227;251;17;408
25/03/2019;61;6538;1;692;240;480;147;420;12;0;8591;533;17;629;;25/03/2019;43;3284;1;341;108;241;63;199;4;0;4284;262;18;369;;25/03/2019;18;3254;0;351;132;239;84;221;8;0;4307;271;8;372
26/03/2019;29;6548;5;755;238;492;154;483;15;0;8719;539;17;609;;26/03/2019;22;3243;2;370;112;251;61;226;6;0;4293;259;18;354;;26/03/2019;7;3305;3;385;126;241;93;257;9;0;4426;280;7;387
27/03/2019;32;6867;6;813;260;406;178;480;9;0;9051;554;18;690;;27/03/2019;19;3356;4;407;132;211;75;240;2;0;4446;266;18;402;;27/03/2019;13;3511;2;406;128;195;103;240;7;0;4605;288;7;406
28/03/2019;46;6803;5;726;249;402;190;494;21;0;8936;542;8;643;;28/03/2019;26;3406;4;371;117;197;82;255;10;0;4468;265;18;380;;28/03/2019;20;3397;1;355;132;205;108;239;11;0;4468;277;8;395
29/03/2019;67;7304;5;774;238;361;166;429;21;0;9365;555;18;713;;29/03/2019;42;3612;2;375;111;192;77;204;8;0;4623;269;18;397;;29/03/2019;25;3692;3;399;127;169;89;225;13;0;4742;285;7;383
30/03/2019;152;7864;11;578;54;66;91;68;11;0;8895;507;18;673;;30/03/2019;71;3840;7;283;22;34;38;37;8;0;4340;241;19;370;;30/03/2019;81;4024;4;295;32;32;53;31;3;0;4555;266;16;375
31/03/2019;164;7762;8;257;21;10;72;16;16;0;8326;457;19;760;;31/03/2019;79;3785;3;121;10;6;26;5;8;0;4043;215;19;360;;31/03/2019;85;3977;5;136;11;4;46;11;8;0;4283;242;17;409
01/04/2019;61;7089;5;737;253;434;157;424;20;0;9180;565;18;694;;01/04/2019;36;3539;2;347;117;207;70;207;4;0;4529;273;18;391;;01/04/2019;25;3550;3;390;136;227;87;217;16;0;4651;292;7;430
02/04/2019;49;7145;6;803;287;486;159;400;14;0;9349;573;18;689;;02/04/2019;32;3503;4;371;134;239;70;184;6;0;4543;272;18;410;;02/04/2019;17;3642;2;432;153;247;89;216;8;0;4806;301;7;429
03/04/2019;31;7084;6;786;274;438;162;458;18;0;9257;557;18;683;;03/04/2019;19;3501;3;359;140;226;70;217;8;0;4543;263;18;380;;03/04/2019;12;3583;3;427;134;212;92;241;10;0;4714;294;7;423
04/04/2019;21;7120;4;732;233;395;171;398;18;0;9092;558;8;686;;04/04/2019;13;3505;2;357;109;203;83;186;11;0;4469;266;18;384;;04/04/2019;8;3615;2;375;124;192;88;212;7;0;4623;292;8;432
05/04/2019;49;7364;4;792;261;384;155;417;21;0;9447;554;7;669;;05/04/2019;35;3719;2;399;127;178;70;199;6;0;4735;273;18;373;;05/04/2019;14;3645;2;393;134;206;85;218;15;0;4712;280;7;428
06/04/2019;130;7723;7;493;68;75;73;76;33;0;8678;477;19;629;;06/04/2019;81;3831;3;242;34;38;27;36;15;0;4307;226;19;343;;06/04/2019;49;3892;4;251;34;37;46;40;18;0;4371;251;17;340
07/04/2019;61;7722;5;278;24;8;46;10;31;0;8185;447;18;710;;07/04/2019;27;3732;3;129;12;2;16;6;12;0;3939;201;19;352;;07/04/2019;34;3990;2;149;12;6;30;4;19;0;4246;246;17;417
08/04/2019;46;6967;6;732;282;439;155;427;22;0;9076;560;8;696;;08/04/2019;25;3424;3;374;130;229;71;199;9;0;4464;270;18;361;;08/04/2019;21;3543;3;358;152;210;84;228;13;0;4612;290;8;435
09/04/2019;57;7274;7;794;249;473;180;410;13;0;9457;581;18;770;;09/04/2019;38;3692;3;403;130;238;74;184;4;0;4766;288;18;528;;09/04/2019;19;3582;4;391;119;235;106;226;9;0;4691;293;7;435
10/04/2019;42;7342;4;801;239;386;184;435;24;0;9457;580;18;718;;10/04/2019;31;3604;4;401;106;193;77;206;11;0;4633;277;18;427;;10/04/2019;11;3738;0;400;133;193;107;229;13;0;4824;303;8;426
11/04/2019;28;7417;3;768;237;373;201;446;37;0;9510;584;18;726;;11/04/2019;17;3578;1;389;117;181;89;212;16;0;4600;276;18;438;;11/04/2019;11;3839;2;379;120;192;112;234;21;0;4910;307;8;437
12/04/2019;37;7646;8;823;249;335;203;470;26;0;9797;582;18;731;;12/04/2019;26;3757;5;412;115;165;91;222;13;0;4806;280;18;448;;12/04/2019;11;3889;3;411;134;170;112;248;13;0;4991;303;8;443
13/04/2019;94;8199;11;556;75;73;66;62;17;0;9153;514;19;691;;13/04/2019;57;4008;7;270;36;33;33;32;6;0;4482;242;19;368;;13/04/2019;37;4191;4;286;39;40;33;30;11;0;4671;272;17;378
14/04/2019;59;7189;4;284;21;10;57;14;14;0;7652;423;17;693;;14/04/2019;38;3571;2;142;7;4;21;7;4;0;3796;199;19;345;;14/04/2019;21;3618;2;142;14;6;36;7;10;0;3856;224;17;404
15/04/2019;38;7267;5;752;243;370;172;496;14;0;9357;572;18;698;;15/04/2019;19;3586;4;369;112;174;74;229;4;0;4571;273;18;422;;15/04/2019;19;3681;1;383;131;196;98;267;10;0;4786;298;7;436
16/04/2019;93;7435;5;841;212;403;183;432;24;0;9628;594;17;696;;16/04/2019;49;3637;3;423;94;204;60;203;8;0;4681;280;18;417;;16/04/2019;44;3798;2;418;118;199;123;229;16;0;4947;314;7;419
17/04/2019;78;7579;8;886;259;349;178;426;19;0;9782;583;19;760;;17/04/2019;49;3660;5;437;132;177;74;189;7;0;4730;277;19;420;;17/04/2019;29;3919;3;449;127;172;104;237;12;0;5052;306;7;440
18/04/2019;107;7987;5;821;287;356;211;453;19;0;10246;615;18;770;;18/04/2019;53;3942;3;412;140;183;90;233;8;0;5064;297;18;472;;18/04/2019;54;4045;2;409;147;173;121;220;11;0;5182;318;8;423
19/04/2019;99;7912;10;865;220;297;132;325;16;0;9876;582;18;748;;19/04/2019;53;4025;5;445;103;157;59;171;6;0;5024;290;18;440;;19/04/2019;46;3887;5;420;117;140;73;154;10;0;4852;292;7;419
20/04/2019;195;7429;4;531;69;59;71;69;15;0;8442;480;17;613;;20/04/2019;108;3765;2;272;33;26;29;38;7;0;4280;235;18;329;;20/04/2019;87;3664;2;259;36;33;42;31;8;0;4162;246;17;322
21/04/2019;106;6632;3;198;15;2;42;2;11;0;7011;379;12;631;;21/04/2019;51;3133;1;104;7;0;16;1;5;0;3318;175;12;359;;21/04/2019;55;3499;2;94;8;2;26;1;6;0;3693;204;18;377
22/04/2019;132;7704;5;346;49;23;55;11;13;0;8338;489;17;731;;22/04/2019;44;3510;1;153;22;13;20;6;6;0;3775;214;10;343;;22/04/2019;88;4194;4;193;27;10;35;5;7;0;4563;275;17;460
23/04/2019;26;7381;7;782;220;375;148;519;11;0;9469;577;18;729;;23/04/2019;14;3584;2;377;111;178;46;233;3;0;4548;272;18;419;;23/04/2019;12;3797;5;405;109;197;102;286;8;0;4921;305;8;397
24/04/2019;80;6842;7;691;149;194;97;240;13;0;8313;482;18;715;;24/04/2019;47;3356;3;379;73;92;49;112;3;0;4114;237;18;413;;24/04/2019;33;3486;4;312;76;102;48;128;10;0;4199;245;7;377
25/04/2019;197;7423;11;365;41;30;65;28;20;0;8180;465;19;635;;25/04/2019;89;3549;5;175;19;16;18;12;8;0;3891;214;11;336;;25/04/2019;108;3874;6;190;22;14;47;16;12;0;4289;251;17;388
26/04/2019;83;7476;8;745;173;186;91;307;8;0;9077;536;17;671;;26/04/2019;58;3637;3;346;83;94;37;149;2;0;4409;252;18;347;;26/04/2019;25;3839;5;399;90;92;54;158;6;0;4668;284;17;358
27/04/2019;194;7878;16;569;64;75;68;76;18;0;8958;509;19;678;;27/04/2019;75;3687;9;261;26;40;23;41;4;0;4166;227;19;348;;27/04/2019;119;4191;7;308;38;35;45;35;14;0;4792;282;17;378
28/04/2019;153;8023;15;470;49;13;58;16;18;0;8815;487;18;743;;28/04/2019;41;3565;6;210;26;5;20;8;5;0;3886;205;18;364;;28/04/2019;112;4458;9;260;23;8;38;8;13;0;4929;282;16;420